Home   Weather   Neunkirchen (Saar)   Past weeks

Flag for Germany Past Weather in Neunkirchen (Saar), Saarland, Germany — Yesterday and Last 2 Weeks

Now
37 °F

Sunny.


Feels Like: 30 °F
Forecast: 16 / 30 °F
Wind: 12 mph from East

Location: Saarbruecken / Ensheim

Current Time: Jan 20, 2017 at 3:13:11 pm

Latest Report: Jan 20, 2017 at 2:50 pm


Visibility: 10 mi

Pressure: 30.39 "Hg

Humidity: 41%

Dew Point: 16 °F

Location of Neunkirchen (Saar)Location

Past Weather in Neunkirchen (Saar) — Graph

°F

Neunkirchen (Saar) Temperature Yesterday

Maximum temperature yesterday: 30 °F (at 1:20 pm)
Minimum temperature yesterday: 19 °F (at 3:20 am)
Average temperature yesterday: 24 °F

High & Low Weather Summary for the Past Weeks

 TemperatureHumidityPressure
High41 °F (Jan 11, 8:50 pm)100% (Jan 7, 8:50 pm)30.69 "Hg (Jan 7, 8:50 pm)
Low12 °F (Jan 7, 2:50 am)44% (Jan 20, 1:50 pm)29.27 "Hg (Jan 12, 10:50 pm)
Average29 °F83%30.21 "Hg
* Reported Jan 5 1:20 pm — Jan 20 1:50 pm, Neunkirchen (Saar), Weather by CustomWeather, © 2017

Note: Actual official high and low records may vary slightly from our data, if they occured in-between our weather recording intervals... More about our weather records

Advertising

Neunkirchen (Saar) Weather History for the Previous 24 Hours

Scroll right to see more
 ConditionsComfort  
Time TempWeatherWind HumidityBarometerVisibility
1:50 pm
Fri, Jan 20
36 °FSunny.10 mph44%30.39 "Hg10 mi
1:20 pm34 °FPassing clouds.13 mph48%30.42 "HgN/A
12:50 pm32 °FPassing clouds.13 mph51%30.42 "HgN/A
12:20 pm32 °FPassing clouds.10 mph47%30.42 "HgN/A
11:50 am30 °FSunny.13 mph51%30.45 "Hg10 mi
11:20 am28 °FSunny.12 mph55%30.45 "Hg10 mi
10:50 am28 °FPassing clouds.10 mph55%30.45 "HgN/A
10:20 am27 °FSunny.13 mph54%30.45 "Hg10 mi
9:50 am25 °FPassing clouds.10 mph59%30.45 "HgN/A
9:20 am23 °FSunny.9 mph63%30.45 "Hg10 mi
8:50 am21 °FSunny.12 mph68%30.45 "Hg10 mi
8:20 am21 °FSunny.10 mph68%30.45 "Hg10 mi
7:50 am21 °FClear.10 mph68%30.45 "Hg10 mi
7:20 am21 °FClear.9 mph68%30.42 "Hg10 mi
6:50 am21 °FClear.8 mph68%30.42 "Hg10 mi
6:20 am21 °FClear.8 mph68%30.42 "Hg10 mi
5:50 am19 °FClear.7 mph73%30.42 "Hg10 mi
5:20 am21 °FClear.8 mph74%30.42 "Hg10 mi
4:50 am21 °FClear.6 mph74%30.45 "Hg10 mi
4:20 am23 °FPassing clouds.7 mph68%30.45 "HgN/A
3:50 am23 °FClear.8 mph68%30.45 "Hg10 mi
3:20 am21 °FClear.7 mph74%30.45 "HgN/A
2:50 am23 °FClear.5 mph68%30.45 "HgN/A
2:20 am23 °FClear.8 mph68%30.45 "HgN/A
1:50 am25 °FClear.9 mph63%30.45 "HgN/A
1:20 am25 °FClear.12 mph63%30.45 "HgN/A
12:50 am25 °FClear.12 mph63%30.45 "HgN/A
12:20 am25 °FClear.14 mph63%30.45 "HgN/A
11:50 pm
Thu, Jan 19
25 °FClear.13 mph63%30.45 "HgN/A
11:20 pm25 °FClear.14 mph69%30.45 "HgN/A
10:50 pm25 °FClear.14 mph69%30.48 "Hg10 mi
10:20 pm25 °FClear.13 mph69%30.48 "Hg10 mi
9:50 pm25 °FClear.14 mph69%30.48 "Hg10 mi
9:20 pm27 °FClear.15 mph64%30.48 "Hg10 mi
8:50 pm27 °FClear.15 mph64%30.48 "Hg10 mi
8:20 pm27 °FClear.15 mph64%30.48 "Hg10 mi
7:50 pm27 °FClear.16 mph64%30.48 "Hg10 mi
7:20 pm27 °FClear.14 mph64%30.48 "Hg10 mi
6:50 pm27 °FClear.13 mph64%30.48 "Hg10 mi
6:20 pm27 °FClear.13 mph64%30.48 "Hg10 mi
5:50 pm27 °FClear.10 mph64%30.48 "Hg10 mi
5:20 pm27 °FClear.10 mph64%30.48 "Hg10 mi
4:50 pm28 °FSunny.10 mph59%30.48 "Hg10 mi
4:20 pm30 °FSunny.10 mph55%30.48 "Hg10 mi
3:50 pm30 °FSunny.13 mph55%30.45 "Hg10 mi
3:20 pm30 °FSunny.10 mph55%30.48 "Hg10 mi
Weather by CustomWeather, © 2017

See weather overviewHow to use our weather pages